一网星座-0676星 (ONEWEB-0676)

导读 | 星芒AI

ONEWEB-0676 是 OneWeb 卫星通信公司发射的低轨通信卫星之一,属于其全球宽带互联网星座计划的一部分。该卫星运行在约 1200 公里的近地轨道,旨在为全球用户提供高速、低延迟的互联网服务,特别是在偏远和地面网络覆盖不足的地区。作为 OneWeb 星座的常规成员,它采用模块化设计,配备先进通信载荷,支持 Ku 和 Ka 频段,助力实现全球无缝连接。

基本信息
目录编号:
56712
目录名称:
ONEWEB-0676
国际标识:
2023-068C
轨道中心:
EARTH
卫星名称:
一网星座-0676星
卫星全名:
一网星座-0676星 (ONEWEB-0676)
卫星状态:
在轨 (已飞行940 天)
发射日期:
2023-05-20 UTC
国别 :
英国 (GB)
星等 :
--
轨道信息
数据来源 国际轨道数据 AOE轨道数据
星历时间 2025-12-15T04:09:57+0800
22小时前
查看轨道信息
2025-12-14T13:00:00+0800
1天前
查看轨道信息
半长轴 7575.894km 7575.899km
偏心率 0.0001865 0.0002255
轨道倾角 87.904° 87.905°
近地点辐角 82.984° 76.560°
升交点赤经 265.485° 265.611°
平近点角 277.151° 170.204°
近地点 1196.346km 1196.055km
远地点 1199.172km 1199.473km
周期 109.373分钟 109.373分钟
每日圈数 13.165942 13.165929
详细信息
平衡模式:
三轴稳定
覆盖范围:
全球
运营商:
一网卫星公司
运营商所在国:
英国
制造商(研发单位):
一网卫星公司
制造商所在国:
英国
使用方式:
暂无
卫星简介
OneWeb卫星网络由648颗重约125公斤的微型卫星组成,运行在1200公里的轨道上。 每颗卫星都能够提供至少每秒8千兆位的吞吐量,以使用其高吞吐量的Ku频段有效载荷为家庭和移动平台提供互联网接入。该卫星仍在工作。
2D轨道图
3D轨道图
轨道高度分析图
轨道倾角分析图
轨道综合分析图
查看轨道综合分析图